FLOCK 3P-76 (42019 NORAD) Tracking and Keplerian Element Data

This shows tracking and keplerian element data for the satellite.

Feedback or suggestion? Click here.




ElementValue
Catalog42019
NameFLOCK 3P-76
Epoch Orbit5530
Epoch Day45.8204278
Epoch Year2018
RAAN111.4992
Inclination97.4684
Eccentricity0.0009904
Argument of Perigee71.5522
Mean Anonmoly288.6791
Mean Motion15.23902437
Decay Rate1.586E-05
L11 42019U 17008BZ 18045.82042780 .00001586 00000-0 68600-4 0 9995
L22 42019 97.4684 111.4992 0009904 71.5522 288.6791 15.23902437 55307

Live tracking and technical data element details for FLOCK 3P-76 (NORAD 42019). FLOCK 3P-76 can be tracked NOW for your location showing map with azimuth and elevation plus other details from your city location.

Track the satellite on the map from your city or location and see movement details for azimuth, elevation, latitude, longitude, range, height, and movement on the map or in text.







IsCatalogInMostPopularTable: catalog: 42019, numindb: 131
Update: records affected: 1



GetName: 42019 FLOCK 3P-76

Hit Count: updated at: Mon, 19 Nov 2018 11:51:00 GMT